TimeEDT,TemperatureF,Dew PointF,Humidity,Sea Level PressureIn,VisibilityMPH,Wind Direction,Wind SpeedMPH,Gust SpeedMPH,PrecipitationIn,Events,Conditions,WindDirDegrees,DateUTC
12:05 AM,80.6,73.4,79,29.97,10.0,East,4.6,-,N/A,,Scattered Clouds,90,2013-07-28 04:05:00
12:16 AM,80.6,73.4,79,29.97,10.0,Calm,Calm,-,N/A,,Mostly Cloudy,0,2013-07-28 04:16:00
12:23 AM,80.6,73.4,79,29.97,10.0,Calm,Calm,-,N/A,,Scattered Clouds,0,2013-07-28 04:23:00
12:30 AM,78.8,73.4,83,29.96,10.0,Calm,Calm,-,N/A,,Mostly Cloudy,0,2013-07-28 04:30:00
12:53 AM,79.0,73.9,84,29.96,10.0,SE,3.5,-,N/A,,Mostly Cloudy,140,2013-07-28 04:53:00
1:05 AM,80.6,73.4,79,29.95,10.0,SE,3.5,-,N/A,,Partly Cloudy,140,2013-07-28 05:05:00
1:53 AM,75.0,73.0,94,29.94,10.0,Calm,Calm,-,N/A,,Partly Cloudy,0,2013-07-28 05:53:00
2:53 AM,73.9,73.0,97,29.93,8.0,Calm,Calm,-,N/A,,Mostly Cloudy,0,2013-07-28 06:53:00
3:53 AM,75.0,73.0,94,29.93,9.0,Calm,Calm,-,N/A,,Mostly Cloudy,0,2013-07-28 07:53:00
4:53 AM,73.9,73.0,97,29.92,7.0,Calm,Calm,-,N/A,,Clear,0,2013-07-28 08:53:00
5:53 AM,73.9,72.0,93,29.94,8.0,West,3.5,-,N/A,,Clear,270,2013-07-28 09:53:00
6:53 AM,73.9,72.0,93,29.94,5.0,Calm,Calm,-,N/A,,Clear,0,2013-07-28 10:53:00
7:53 AM,75.0,73.0,94,29.98,5.0,Calm,Calm,-,0.01,Rain,Light Rain,0,2013-07-28 11:53:00
8:53 AM,75.0,73.0,94,29.98,5.0,Calm,Calm,-,0.00,,Clear,0,2013-07-28 12:53:00
9:53 AM,79.0,72.0,79,29.98,7.0,WSW,3.5,-,N/A,,Clear,250,2013-07-28 13:53:00
10:53 AM,81.0,73.0,77,29.99,7.0,WSW,4.6,-,N/A,,Clear,240,2013-07-28 14:53:00
11:53 AM,82.9,75.0,77,30.00,10.0,Calm,Calm,-,0.00,,Scattered Clouds,0,2013-07-28 15:53:00
12:20 PM,82.4,73.4,74,29.99,10.0,SSE,4.6,-,N/A,,Mostly Cloudy,150,2013-07-28 16:20:00
12:53 PM,82.9,75.9,79,30.00,10.0,South,8.1,-,N/A,,Mostly Cloudy,190,2013-07-28 16:53:00
1:36 PM,82.4,75.2,79,29.98,10.0,South,9.2,-,N/A,,Clear,170,2013-07-28 17:36:00
1:43 PM,82.4,75.2,79,29.98,10.0,South,9.2,-,N/A,,Mostly Cloudy,170,2013-07-28 17:43:00
1:53 PM,82.9,75.9,79,29.99,10.0,South,10.4,-,N/A,,Mostly Cloudy,170,2013-07-28 17:53:00
2:53 PM,82.9,75.9,79,29.99,10.0,South,9.2,-,N/A,,Clear,180,2013-07-28 18:53:00
3:53 PM,82.9,75.9,79,29.98,10.0,South,11.5,-,N/A,,Clear,190,2013-07-28 19:53:00
4:53 PM,84.0,75.9,76,29.98,10.0,South,12.7,-,N/A,,Clear,180,2013-07-28 20:53:00
5:48 PM,78.8,69.8,74,29.99,10.0,SW,5.8,-,N/A,,Mostly Cloudy,220,2013-07-28 21:48:00
5:53 PM,78.1,69.1,74,30.00,10.0,WSW,4.6,-,N/A,,Mostly Cloudy,250,2013-07-28 21:53:00
6:09 PM,78.8,69.8,74,30.00,10.0,Calm,Calm,-,N/A,,Mostly Cloudy,0,2013-07-28 22:09:00
6:53 PM,82.0,75.0,79,30.00,10.0,South,9.2,-,0.00,,Mostly Cloudy,180,2013-07-28 22:53:00
7:53 PM,81.0,75.9,85,30.01,10.0,South,11.5,-,N/A,,Clear,190,2013-07-28 23:53:00
8:53 PM,81.0,75.9,85,30.01,10.0,SSW,11.5,-,N/A,,Partly Cloudy,200,2013-07-29 00:53:00
9:53 PM,81.0,75.9,85,30.03,10.0,SSW,10.4,-,N/A,,Mostly Cloudy,210,2013-07-29 01:53:00
10:11 PM,80.6,75.2,84,30.02,10.0,SSW,13.8,-,N/A,,Mostly Cloudy,200,2013-07-29 02:11:00
10:19 PM,80.6,75.2,84,30.02,10.0,SSW,10.4,-,N/A,,Scattered Clouds,200,2013-07-29 02:19:00
10:53 PM,80.1,75.9,87,30.02,10.0,SSW,12.7,-,N/A,,Partly Cloudy,210,2013-07-29 02:53:00
11:53 PM,80.1,75.0,85,30.04,10.0,SSW,15.0,-,N/A,,Clear,210,2013-07-29 03:53:00